Temp
61 61 61 61 60 60 60 60 60 61 61 61 62 62 62 62 62 60 64 76 74 74 75 77 74 73 71 67 68 65 55 51 58 59 59 67 67 73 77 74 76 79 76 80 82
61 61 61 61 61 60 60 60 60 60 61 61 61 61 62 62 59 63 75 75 74 74 75 72 69 71 66 64 66 62 54 59 66 68 64 71 70 72 72 74 74 76 80 83 82
60 60 60 60 60 60 60 60 60 60 61 61 61 61 62 60 62 72 77 77 74 75 77 76 73 70 60 62 63 60 60 64 70 71 74 74 72 75 72 68 73 73 76 79 79
60 60 60 60 60 60 59 60 60 60 60 60 60 61 62 60 57 75 77 75 75 78 75 73 69 61 57 58 65 59 69 70 71 74 70 71 75 74 74 73 80 80 80 80 77
59 59 59 59 59 59 59 59 59 60 59 60 60 61 59 59 66 79 77 77 77 78 75 72 65 64 57 63 64 62 69 72 75 69 73 76 74 73 75 78 81 81 80 79 77
58 58 58 58 58 59 59 58 58 58 59 60 61 62 61 57 78 79 78 77 77 75 75 73 71 69 63 63 64 69 70 71 70 67 69 71 72 76 75 78 78 78 77 78 77
58 58 58 58 58 58 58 58 58 58 60 61 63 66 62 67 77 75 77 74 77 79 76 76 75 70 69 66 68 69 65 69 68 68 69 76 68 71 75 78 76 76 75 75 75
57 57 57 58 58 58 59 58 58 59 61 62 64 63 61 75 74 75 74 76 80 80 78 79 76 71 66 68 69 63 60 56 67 71 72 70 61 71 75 75 74 75 74 73 71
57 57 57 57 58 58 58 57 59 61 63 64 60 60 62 76 76 80 78 78 79 79 79 87 73 66 68 59 57 57 52 54 64 66 69 67 60 71 74 75 73 73 71 72 71
57 56 56 57 57 57 57 57 60 62 64 69 72 61 67 72 79 81 79 80 77 77 75 72 64 60 56 55 49 52 54 56 57 66 67 62 64 70 72 72 72 73 72 72 72
57 56 56 56 57 57 53 60 63 61 61 65 66 66 73 81 84 78 81 79 76 71 62 64 59 54 58 60 60 59 56 56 63 67 63 64 64 68 72 69 71 72 68 72 72
56 56 56 56 56 56 51 62 66 63 57 70 71 71 78 80 72 77 82 72 69 62 63 60 55 64 65 65 63 60 56 59 63 68 64 61 64 65 70 72 72 72 70 72 71
55 55 56 55 55 56 55 65 67 62 56 65 70 70 71 75 70 71 78 72 67 62 60 57 63 70 68 63 62 59 56 58 60 64 62 58 58 59 64 66 67 70 73 71 72
55 55 55 54 57 49 58 67 65 62 49 59 65 70 73 76 69 80 81 75 65 64 62 60 68 68 63 64 64 55 66 66 63 57 52 58 48 55 59 63 67 72 72 72 71
55 55 55 54 45 49 64 62 66 66 39 67 67 76 71 72 72 74 81 74 65 65 63 60 62 62 61 65 66 62 67 65 62 54 49 54 49 55 57 61 62 63 64 67 69
54 55 54 50 44 51 58 60 63 50 40 63 70 67 65 69 71 72 74 76 73 65 62 63 67 67 66 70 69 69 63 56 51 49 43 48 49 50 54 59 62 58 58 61 61
54 54 52 54 50 54 55 59 47 40 63 62 63 65 64 63 67 68 66 62 59 52 50 60 62 66 71 63 64 60 51 42 42 40 42 50 48 48 56 60 60 56 56 58 59
53 52 48 52 49 53 56 52 37 54 55 66 67 65 62 65 64 65 62 58 60 59 51 51 50 63 69 65 60 56 54 41 38 36 43 51 45 49 60 61 62 60 58 59 57
51 42 42 48 54 54 52 40 44 51 63 61 63 58 58 63 63 61 59 60 62 61 55 48 52 65 69 68 67 56 51 55 45 42 41 45 51 56 59 59 60 58 57 55 56
45 39 45 55 58 53 48 43 49 60 65 63 53 59 52 58 58 56 56 64 63 65 64 58 51 63 68 66 63 61 61 50 44 38 36 43 44 45 51 54 56 54 53 54 54
41 43 57 58 56 51 41 42 53 63 65 60 56 56 57 57 57 54 58 64 67 64 64 57 54 55 61 57 55 57 51 48 46 42 36 34 41 52 52 54 53 52 53 53 52
37 42 58 60 49 43 42 50 56 61 63 63 60 59 58 59 56 56 57 61 68 65 59 58 53 48 55 60 63 57 51 49 42 40 39 38 41 58 55 54 56 55 55 52 51
33 37 55 58 43 42 48 56 59 59 59 60 59 62 61 57 51 57 60 68 67 64 59 58 47 44 48 55 59 55 54 49 47 43 40 35 40 55 56 54 58 55 52 52 51
35 38 47 50 48 47 46 50 53 63 61 62 61 61 57 54 55 54 59 66 67 65 61 59 48 47 43 49 53 51 53 51 47 41 42 42 46 50 53 53 53 53 52 51 51
35 37 42 41 45 45 47 50 51 52 60 60 56 60 57 49 51 50 57 60 64 62 58 56 48 50 53 56 57 55 57 51 49 49 46 50 49 53 55 53 55 53 52 51 50
35 36 41 40 44 45 46 47 50 54 55 56 53 58 54 51 54 51 54 52 52 56 51 51 47 50 50 55 55 54 57 54 53 51 50 49 50 54 53 53 53 52 51 52 50
41 42 40 41 42 42 43 47 52 53 57 60 58 54 53 56 58 55 57 56 54 54 50 49 47 44 41 49 49 44 51 54 53 52 51 46 52 52 51 53 52 52 54 52 51
MSLP
1019.28 1018.81 1018.30 1017.87 1017.35 1016.86 1016.35 1015.87 1015.49 1015.12 1014.76 1014.40 1014.06 1013.76 1013.58 1013.26 1012.78 1012.77 1011.86 1009.73 1009.53 1009.45 1009.79 1009.92 1010.12 1010.12 1010.26 1010.57 1010.83 1011.44 1012.90 1013.17 1011.88 1011.38 1011.32 1011.11 1011.34 1011.58 1011.48 1010.93 1011.05 1011.18 1011.29 1011.41 1012.19
1019.39 1018.88 1018.31 1017.83 1017.31 1016.75 1016.18 1015.65 1015.27 1014.94 1014.54 1014.20 1013.92 1013.69 1013.51 1013.30 1012.98 1011.75 1008.80 1008.77 1009.00 1009.49 1009.89 1010.02 1010.06 1010.10 1010.46 1010.62 1010.86 1011.37 1012.54 1011.94 1010.76 1010.38 1010.59 1010.50 1010.51 1010.65 1010.84 1010.97 1011.09 1011.03 1011.15 1011.62 1012.12
1019.44 1018.89 1018.31 1017.80 1017.24 1016.61 1016.04 1015.57 1015.10 1014.75 1014.40 1014.06 1013.81 1013.59 1013.49 1013.43 1012.66 1009.49 1007.75 1008.18 1008.80 1009.33 1009.52 1009.76 1009.90 1010.07 1010.44 1010.45 1010.39 1010.86 1011.21 1010.90 1010.13 1009.63 1009.78 1009.93 1010.14 1010.39 1010.71 1011.08 1010.51 1010.73 1011.16 1011.72 1012.11
1019.55 1018.93 1018.36 1017.78 1017.14 1016.51 1015.98 1015.49 1014.97 1014.58 1014.23 1013.93 1013.71 1013.58 1013.51 1013.40 1011.48 1008.14 1007.65 1007.84 1008.70 1009.24 1009.58 1009.74 1009.93 1010.34 1010.49 1010.45 1010.08 1010.28 1009.54 1009.45 1009.08 1009.04 1009.30 1009.26 1009.53 1009.90 1010.06 1009.62 1009.57 1010.39 1010.80 1011.38 1011.83
1019.60 1018.97 1018.39 1017.71 1016.98 1016.39 1015.84 1015.26 1014.79 1014.42 1014.12 1013.81 1013.61 1013.53 1013.44 1012.86 1010.40 1007.89 1007.89 1008.15 1008.88 1009.33 1009.63 1009.68 1009.89 1010.06 1010.21 1010.10 1009.99 1009.97 1009.30 1008.83 1007.72 1008.31 1008.12 1008.64 1008.78 1009.26 1009.50 1009.71 1009.95 1010.56 1010.98 1011.31 1011.71
1019.62 1019.01 1018.36 1017.62 1016.88 1016.25 1015.60 1015.01 1014.49 1014.16 1013.90 1013.63 1013.45 1013.47 1013.27 1011.81 1008.28 1008.01 1008.17 1008.61 1008.91 1009.27 1009.38 1009.40 1009.31 1009.52 1009.75 1009.79 1009.76 1009.23 1008.92 1008.13 1007.35 1007.27 1007.63 1008.13 1008.76 1009.24 1009.53 1009.98 1010.32 1010.75 1011.03 1011.44 1011.70
1019.58 1019.01 1018.39 1017.64 1016.78 1016.07 1015.32 1014.66 1014.15 1013.75 1013.48 1013.37 1013.26 1013.22 1012.66 1009.63 1008.13 1008.13 1008.36 1008.47 1008.64 1008.92 1008.95 1008.89 1008.86 1009.34 1009.24 1009.34 1009.17 1008.96 1008.78 1007.99 1007.55 1007.33 1007.87 1007.96 1009.42 1009.39 1009.07 1009.65 1010.16 1010.55 1011.20 1011.50 1011.58
1019.49 1018.85 1018.18 1017.41 1016.64 1015.77 1014.89 1014.26 1013.74 1013.31 1013.13 1013.14 1013.24 1013.04 1011.47 1008.64 1008.23 1008.27 1008.35 1008.31 1008.41 1008.52 1008.59 1008.42 1008.75 1009.23 1009.16 1009.15 1009.15 1009.32 1009.16 1008.93 1007.77 1007.36 1007.73 1007.63 1009.23 1009.15 1009.20 1009.47 1010.12 1010.73 1011.23 1011.37 1011.33
1019.44 1018.79 1017.98 1017.16 1016.36 1015.44 1014.48 1013.68 1013.06 1012.77 1012.86 1013.06 1013.22 1012.68 1010.54 1008.39 1008.20 1007.68 1007.91 1008.00 1008.02 1008.37 1008.39 1008.36 1008.72 1009.44 1009.60 1010.06 1010.33 1010.36 1009.97 1009.40 1008.57 1007.90 1007.88 1008.43 1009.19 1008.79 1008.94 1009.55 1010.17 1010.63 1010.74 1010.91 1011.14
1019.43 1018.73 1017.91 1017.01 1016.06 1015.10 1014.03 1012.98 1012.82 1012.79 1012.95 1012.89 1012.51 1012.39 1009.65 1008.02 1007.35 1007.17 1007.36 1007.92 1008.17 1008.21 1008.31 1008.65 1009.60 1010.22 1010.88 1011.01 1011.21 1010.86 1010.34 1009.60 1008.95 1008.12 1008.02 1008.44 1008.77 1008.94 1009.39 1009.85 1009.97 1009.95 1010.36 1010.54 1010.80
1019.45 1018.72 1017.87 1016.91 1015.79 1014.88 1014.04 1012.92 1013.20 1013.05 1012.54 1011.52 1011.01 1010.10 1008.77 1007.68 1006.83 1007.00 1007.05 1007.90 1008.43 1008.74 1009.04 1009.37 1010.31 1010.70 1010.88 1010.95 1010.75 1010.76 1010.51 1010.26 1009.13 1008.41 1008.70 1008.49 1008.52 1008.66 1008.85 1009.69 1009.90 1010.08 1010.45 1010.41 1010.02
1019.46 1018.72 1017.88 1016.84 1015.56 1014.70 1014.39 1013.83 1013.61 1014.01 1012.46 1010.33 1009.65 1009.14 1008.24 1008.07 1008.14 1006.94 1006.98 1007.97 1008.53 1009.17 1009.39 1010.08 1010.15 1009.96 1010.19 1010.45 1010.53 1010.46 1010.40 1009.93 1008.95 1008.44 1008.99 1008.74 1008.63 1008.51 1008.84 1008.77 1008.67 1009.18 1009.86 1010.06 1010.49
1019.47 1018.77 1017.91 1016.67 1015.22 1014.58 1014.81 1013.32 1012.77 1012.92 1012.33 1009.41 1008.28 1007.88 1007.48 1007.80 1007.73 1006.93 1007.06 1007.52 1008.21 1009.05 1009.47 1009.88 1009.42 1009.21 1009.67 1009.74 1009.98 1009.89 1010.15 1009.95 1009.82 1009.17 1009.38 1009.57 1009.55 1009.11 1009.23 1009.31 1009.44 1009.75 1009.76 1010.22 1010.26
1019.54 1018.87 1018.20 1016.93 1015.35 1015.97 1014.35 1013.02 1012.53 1012.28 1011.99 1008.86 1007.49 1006.27 1006.56 1006.78 1006.92 1006.19 1006.35 1007.13 1008.01 1008.59 1009.37 1009.51 1008.80 1008.96 1009.17 1009.30 1009.43 1009.70 1009.09 1009.57 1009.89 1010.39 1010.51 1010.47 1010.97 1009.97 1009.65 1009.87 1009.70 1009.34 1009.36 1009.44 1009.86
1019.49 1018.94 1018.42 1018.31 1017.71 1016.44 1013.85 1012.95 1012.26 1011.89 1011.37 1007.24 1006.29 1005.31 1005.71 1006.12 1005.99 1005.66 1005.70 1006.52 1007.65 1008.40 1009.21 1009.05 1008.67 1008.58 1008.64 1008.49 1008.72 1008.68 1008.92 1009.67 1010.34 1011.14 1011.56 1011.66 1011.83 1010.71 1010.30 1009.96 1009.84 1010.05 1010.25 1009.82 1010.16
1019.08 1018.68 1018.38 1018.00 1017.98 1015.19 1014.12 1013.35 1012.65 1012.69 1010.06 1006.66 1005.52 1005.49 1006.02 1005.86 1005.76 1005.71 1005.91 1006.35 1007.09 1008.29 1008.81 1008.80 1008.42 1008.25 1007.96 1007.84 1007.99 1008.49 1009.38 1010.71 1011.78 1012.39 1013.00 1012.72 1012.81 1012.46 1011.94 1011.70 1011.11 1011.51 1011.76 1010.95 1011.22
1018.50 1018.06 1018.32 1017.88 1015.97 1014.43 1014.29 1013.77 1013.70 1012.08 1008.80 1007.06 1006.05 1005.74 1005.49 1005.81 1005.89 1005.95 1006.32 1006.98 1007.89 1008.82 1009.39 1009.09 1008.40 1007.97 1007.72 1007.90 1008.02 1008.96 1010.53 1012.19 1013.38 1014.07 1014.14 1013.45 1013.69 1013.97 1013.28 1012.85 1012.71 1013.07 1013.22 1012.93 1013.09
1017.77 1016.96 1016.02 1015.42 1014.81 1015.15 1014.82 1014.59 1013.67 1010.83 1009.23 1007.48 1006.51 1005.88 1005.97 1005.85 1006.15 1006.42 1006.91 1007.67 1008.07 1008.66 1009.70 1009.61 1008.61 1007.66 1007.32 1007.44 1008.08 1009.23 1010.46 1012.32 1013.80 1015.11 1014.54 1013.60 1013.89 1014.27 1013.97 1013.60 1013.62 1014.15 1014.79 1015.50 1015.70
1017.22 1016.25 1015.89 1013.73 1014.24 1014.86 1015.08 1014.72 1012.68 1010.83 1009.10 1008.13 1006.89 1006.41 1006.11 1005.92 1005.96 1006.68 1007.09 1007.47 1007.57 1008.08 1009.09 1009.34 1008.71 1007.51 1007.07 1007.12 1007.93 1009.27 1010.66 1011.43 1013.59 1015.29 1015.26 1014.58 1014.61 1014.05 1014.06 1014.19 1014.53 1015.43 1016.23 1017.04 1017.81
1017.72 1016.83 1014.88 1012.93 1013.57 1014.20 1014.66 1013.91 1012.29 1010.53 1009.32 1008.47 1007.91 1007.02 1006.66 1006.47 1006.47 1006.79 1007.01 1006.47 1006.84 1007.10 1007.42 1008.62 1008.82 1007.84 1007.14 1007.12 1007.94 1008.43 1009.95 1011.86 1013.79 1015.72 1016.37 1015.51 1015.36 1015.42 1015.08 1014.84 1015.32 1016.11 1017.03 1018.04 1018.82
1017.79 1016.49 1013.12 1012.68 1013.39 1014.05 1014.43 1013.54 1011.86 1010.25 1009.45 1008.82 1008.14 1007.69 1007.18 1006.86 1006.76 1006.70 1006.79 1006.20 1006.08 1006.76 1007.34 1008.62 1008.99 1008.57 1007.92 1007.94 1008.17 1009.23 1010.44 1012.23 1014.11 1015.66 1016.59 1016.55 1016.14 1015.34 1015.45 1015.22 1015.86 1017.02 1017.52 1018.14 1019.00
1018.33 1016.69 1013.21 1012.86 1013.86 1014.45 1014.14 1012.84 1011.54 1010.19 1009.46 1008.99 1008.21 1007.71 1007.42 1007.10 1006.83 1006.62 1006.40 1006.16 1005.82 1006.16 1007.64 1008.36 1009.21 1009.58 1009.26 1008.86 1008.71 1009.44 1010.97 1012.26 1014.03 1016.19 1016.76 1016.67 1015.85 1015.01 1015.29 1015.28 1015.54 1016.72 1017.50 1018.26 1018.66
1019.46 1017.18 1013.50 1013.12 1013.81 1014.33 1013.48 1012.44 1011.34 1010.27 1009.43 1008.87 1008.03 1007.19 1007.03 1007.15 1007.12 1006.74 1006.34 1005.97 1005.91 1006.32 1007.14 1008.29 1009.82 1010.51 1010.62 1010.14 1009.49 1010.06 1011.40 1012.42 1013.56 1015.04 1016.24 1016.70 1015.82 1015.25 1015.50 1015.92 1016.23 1016.55 1017.71 1018.49 1018.99
1020.03 1018.10 1015.08 1013.98 1013.73 1013.58 1013.23 1012.28 1011.20 1009.60 1008.99 1008.50 1007.76 1007.06 1007.02 1007.26 1007.21 1007.15 1006.81 1006.63 1006.54 1006.88 1007.44 1008.16 1010.27 1010.76 1010.67 1010.23 1010.28 1010.93 1011.52 1012.59 1013.48 1014.84 1015.60 1015.60 1015.26 1015.36 1015.52 1015.83 1016.18 1016.71 1017.09 1018.05 1019.02
1020.04 1018.74 1017.15 1015.39 1014.68 1013.79 1013.15 1012.27 1011.53 1010.73 1008.85 1008.05 1007.63 1007.15 1007.13 1007.80 1007.88 1007.97 1007.68 1007.38 1007.57 1007.99 1008.34 1008.99 1010.81 1011.19 1011.36 1010.97 1010.53 1010.77 1011.31 1012.37 1013.46 1013.66 1014.14 1014.21 1014.51 1013.94 1014.49 1015.09 1015.56 1016.62 1017.62 1018.33 1019.31
1020.01 1019.27 1017.77 1016.43 1015.20 1014.19 1013.19 1012.44 1011.64 1010.71 1009.87 1008.57 1008.03 1007.86 1007.55 1007.84 1007.87 1008.24 1008.41 1008.34 1008.44 1008.84 1009.44 1010.38 1011.93 1012.06 1012.46 1012.35 1011.93 1011.69 1011.39 1012.20 1012.98 1012.97 1013.38 1013.82 1013.71 1013.39 1013.95 1014.89 1015.94 1016.91 1017.69 1018.40 1019.26
1019.68 1019.23 1018.69 1016.81 1015.60 1014.63 1013.74 1012.91 1011.79 1011.14 1009.49 1008.98 1008.46 1008.36 1008.29 1008.15 1008.10 1008.39 1008.46 1008.82 1008.78 1009.18 1010.25 1011.09 1012.08 1013.08 1013.49 1012.89 1012.84 1012.30 1011.72 1012.11 1012.22 1012.64 1013.14 1013.54 1013.20 1013.68 1014.36 1015.20 1015.92 1016.61 1017.42 1018.43 1019.34
Wind_Speed
19 19 19 18 17 17 18 17 16 15 13 12 11 10 9 10 10 1 6 12 6 4 2 2 2 1 2 1 2 4 6 1 5 2 1 3 3 5 5 5 1 6 5 10 18
20 20 20 20 19 18 19 18 17 16 14 12 11 9 8 8 2 7 13 9 11 9 3 3 2 2 3 2 1 6 5 9 4 4 6 11 6 7 2 6 4 3 5 13 18
21 21 20 21 21 19 19 19 19 17 14 12 11 8 7 5 4 9 1 15 9 12 3 4 2 2 1 1 1 4 6 6 6 3 15 15 8 8 7 6 7 13 15 17 18
22 22 22 22 22 21 19 19 19 18 15 13 10 7 6 2 2 3 5 13 11 8 3 4 3 3 0 2 4 2 7 6 4 8 7 8 8 7 10 7 9 14 18 19 18
23 23 23 22 23 21 21 20 19 18 15 12 9 4 2 2 10 4 7 10 7 6 5 4 3 4 2 3 2 4 5 5 11 8 13 8 11 10 14 2 9 12 14 19 16
22 23 23 23 22 22 22 20 18 16 14 11 6 1 2 3 5 2 8 7 5 5 5 5 5 4 3 3 4 4 6 9 6 3 4 12 5 9 6 8 12 13 14 14 15
22 22 23 23 23 23 23 22 19 17 13 8 5 3 1 16 3 2 7 5 5 4 4 5 3 2 4 5 3 4 5 8 2 1 6 13 5 14 8 14 15 15 8 8 11
23 23 24 24 24 25 25 23 21 16 8 5 6 1 8 4 2 5 3 2 4 5 3 5 3 4 1 3 8 5 5 3 5 4 5 4 9 7 13 17 15 12 8 10 10
23 24 25 26 26 26 26 26 19 5 2 7 3 2 11 4 3 6 5 5 3 3 5 5 1 2 6 4 6 7 1 2 9 2 3 4 4 8 11 15 14 12 10 11 9
24 25 26 27 28 27 29 19 4 5 1 3 3 2 5 2 4 6 6 3 1 3 4 3 6 4 4 5 5 3 4 5 4 6 5 4 8 11 12 11 16 16 11 14 15
25 25 26 28 28 28 15 3 5 4 1 7 6 5 5 7 3 4 6 6 2 4 2 2 4 5 8 6 2 1 1 3 7 5 2 8 8 17 20 8 13 12 10 15 19
26 26 27 29 30 28 2 4 6 2 9 11 14 10 11 5 5 5 7 6 6 6 2 5 5 9 3 4 4 3 2 9 9 5 6 6 11 7 15 21 21 18 13 16 11
23 24 26 29 34 4 3 2 5 3 4 9 8 7 7 10 9 8 9 6 5 5 4 7 7 4 4 3 2 4 3 4 7 5 2 2 8 2 2 4 1 7 9 6 15
22 23 24 31 4 6 6 7 8 3 4 9 5 9 7 8 5 9 9 8 2 10 5 5 6 6 1 5 6 6 8 7 3 3 1 3 5 5 2 6 8 16 15 16 14
20 21 19 16 6 5 7 12 13 4 3 4 4 2 4 11 3 6 6 5 9 5 7 8 1 2 1 6 5 11 7 6 3 4 3 5 5 9 4 6 6 4 9 11 6
22 21 19 2 2 10 12 13 3 6 9 6 6 6 6 2 2 3 5 4 5 6 1 8 1 1 5 5 3 4 5 8 5 4 4 2 5 7 5 7 8 6 7 9 12
24 23 15 3 6 1 6 4 5 4 5 4 1 1 5 7 4 4 8 5 7 4 3 7 6 3 4 5 3 6 8 3 4 6 5 3 4 2 9 9 6 5 8 10 14
25 28 6 7 7 5 3 6 4 6 5 5 5 3 5 6 7 6 6 6 2 5 4 6 8 5 4 7 6 4 9 8 5 4 5 3 1 5 6 5 11 10 9 11 14
25 4 4 5 11 3 5 3 9 6 3 6 8 3 4 1 4 6 9 10 11 10 10 6 7 3 4 3 8 3 3 5 8 3 3 3 4 4 8 8 9 12 12 13 12
6 5 5 1 11 4 5 6 5 4 4 5 2 5 3 4 4 7 8 6 7 12 7 7 3 5 5 1 2 6 6 4 4 4 4 4 3 4 6 6 3 11 12 12 12
2 5 4 7 3 6 5 8 5 7 3 2 3 3 1 2 2 1 3 5 6 3 7 6 5 5 2 1 3 2 2 7 7 5 6 1 5 6 5 4 1 7 9 12 12
3 3 3 3 5 1 3 6 3 4 1 6 4 9 7 5 2 2 2 4 3 7 11 6 6 4 7 5 3 4 4 5 7 3 2 4 6 6 7 5 10 12 12 12 13
3 5 5 3 4 2 5 4 4 4 6 5 4 6 4 5 2 3 1 4 2 4 8 8 1 1 7 7 5 7 4 4 6 4 5 7 7 4 4 3 7 16 12 12 12
2 3 5 3 1 6 2 4 4 6 9 6 7 2 3 3 2 0 2 4 3 4 9 8 4 7 10 7 5 5 4 2 5 4 5 6 3 6 8 8 7 11 14 13 12
1 4 1 3 1 2 3 2 7 5 4 2 2 6 6 4 3 2 4 4 6 4 4 5 5 4 4 3 4 2 3 3 5 4 6 7 9 6 14 13 15 9 8 12 11
1 1 5 3 3 2 6 6 4 3 4 6 2 6 1 6 7 5 3 0 2 3 3 3 2 3 3 3 3 3 3 5 7 2 5 2 5 4 2 7 9 11 12 12 9
2 3 2 4 4 1 2 4 1 5 5 1 5 5 4 5 4 2 4 2 2 5 3 4 6 4 2 2 2 3 6 6 3 1 2 5 9 5 4 6 10 12 13 12 11
Wind_Direction
359 356 354 350 346 345 346 345 343 336 329 323 317 313 315 325 314 149 250 219 182 151 116 334 133 264 69 315 138 120 65 229 259 171 123 137 196 136 225 124 205 192 159 168 146
356 353 352 349 345 342 341 341 341 335 328 325 318 311 318 334 331 257 238 214 216 137 188 233 303 40 17 291 129 95 118 219 238 127 163 179 170 162 137 127 240 80 108 149 145
354 352 350 347 343 339 337 336 336 332 326 323 317 311 316 320 337 250 290 205 182 164 165 149 128 79 26 281 266 157 184 199 250 137 155 184 169 168 139 203 212 171 156 163 158
351 350 347 343 341 337 333 332 332 329 324 319 311 309 317 277 229 266 318 176 156 161 118 124 69 90 169 220 246 284 240 223 208 206 189 190 153 184 180 211 188 170 169 165 169
347 347 343 340 338 333 329 326 326 323 317 310 301 303 333 14 253 291 83 128 118 120 169 159 154 164 212 202 233 198 268 260 252 172 214 150 190 164 195 291 150 160 169 181 172
344 342 340 338 335 330 326 323 322 316 309 298 280 196 126 270 247 197 129 124 138 149 182 174 202 193 238 220 163 222 244 279 294 264 172 151 170 119 211 156 165 179 181 189 177
341 339 338 335 332 327 323 320 319 312 304 277 223 213 212 236 5 159 157 169 168 178 193 210 161 143 163 301 200 257 323 339 329 54 86 109 61 217 180 172 181 195 180 191 188
339 338 336 335 331 325 321 319 314 306 292 238 181 191 248 248 241 146 160 289 205 221 248 251 170 209 194 314 4 27 47 43 286 5 176 85 212 225 179 172 194 195 178 191 196
339 336 335 333 330 325 321 316 310 285 203 154 153 156 267 324 208 214 165 214 194 182 227 282 1 91 21 67 7 10 316 341 325 360 112 83 244 236 182 185 193 196 187 191 194
338 336 335 332 328 326 324 310 261 116 170 206 253 5 280 271 227 185 197 180 301 331 2 133 53 65 33 65 217 235 343 330 285 302 12 304 223 180 193 193 201 203 192 192 192
338 335 334 331 327 326 337 9 19 6 225 209 198 251 282 301 296 203 166 119 93 12 204 352 81 226 228 199 163 112 183 274 268 257 245 253 260 192 195 195 214 209 201 205 203
336 335 333 330 323 323 292 61 96 269 292 236 243 254 251 55 311 294 105 143 133 208 137 17 246 234 217 185 216 215 307 295 290 272 157 294 278 206 184 204 204 202 206 212 204
334 334 334 331 320 356 296 239 337 321 254 281 209 216 212 148 204 257 145 166 154 182 174 174 231 108 174 261 234 250 196 241 233 342 131 19 331 58 188 286 120 287 249 236 211
330 332 336 336 36 330 286 320 323 263 21 273 232 250 171 142 248 214 176 145 129 189 199 234 271 235 268 263 163 267 212 211 158 95 216 53 275 307 109 208 218 225 220 224 205
326 328 332 333 288 313 289 334 322 59 329 233 196 145 196 152 180 224 166 67 165 194 119 239 198 77 279 239 157 226 156 178 124 107 78 347 73 273 349 326 294 330 313 268 227
320 322 330 14 280 246 318 308 43 52 249 303 151 154 121 162 210 89 130 81 155 175 195 233 262 220 224 283 245 131 90 49 55 92 52 244 120 285 326 296 312 0 353 30 88
315 312 306 262 236 166 319 30 55 174 316 335 345 164 160 163 223 167 148 152 160 138 283 323 270 247 199 284 10 72 60 358 354 12 212 159 94 262 321 329 8 26 41 78 97
314 310 252 205 229 263 356 56 184 233 260 310 346 275 194 139 242 174 130 197 275 118 128 188 314 166 173 181 204 198 149 152 206 187 242 285 279 322 317 11 60 56 59 63 73
320 316 276 249 193 124 89 128 204 210 313 349 327 188 195 285 163 142 184 200 195 171 179 153 262 266 219 190 141 197 173 185 102 34 74 263 115 266 354 32 69 67 61 60 62
315 334 264 161 156 103 87 231 238 236 9 1 293 6 105 349 89 147 173 212 212 187 150 211 306 218 278 113 117 163 156 90 20 146 216 285 98 223 329 331 48 97 94 86 76
8 348 275 151 163 53 170 230 275 271 278 282 254 350 348 139 151 175 192 278 205 134 166 131 129 270 37 359 177 5 52 50 106 107 157 180 265 216 232 231 97 107 108 113 103
346 341 332 124 76 77 185 202 268 281 281 280 237 207 202 202 196 149 206 227 307 157 152 185 154 229 227 335 12 104 112 126 115 203 107 137 269 175 220 251 148 137 125 122 125
345 271 308 112 160 238 274 262 233 240 235 241 275 193 191 166 157 243 243 317 329 111 159 176 98 70 5 345 355 74 50 91 87 73 188 131 257 174 200 261 159 140 138 146 149
8 329 312 48 150 153 196 267 258 267 240 219 246 220 123 113 16 183 306 43 2 59 71 85 110 155 188 194 153 93 117 177 110 112 179 216 204 194 197 184 172 168 165 156 151
102 262 223 284 326 161 178 293 293 294 289 324 248 206 161 128 106 32 348 349 37 351 53 90 106 99 51 49 66 87 102 169 220 189 157 242 193 228 202 190 191 164 147 147 153
166 1 342 278 288 244 174 223 238 287 230 290 356 0 91 144 163 180 165 317 206 352 70 21 135 77 94 72 45 234 178 233 240 234 259 218 277 206 183 97 142 165 164 167 161
302 311 113 289 324 104 157 284 290 316 276 233 287 117 113 184 150 86 148 103 164 141 109 82 122 88 105 19 217 341 214 224 223 196 242 185 234 159 176 150 173 174 174 164 147